This demonstration page uses our WeatherBlox Daily Observations layout. Learn more.

Left ArrowRight Arrow

34.16533, -84.80231

Hourly Observations for August 21, 2020

Temp ( °F °C ) Dew Point ( °F °C ) Humidity (%) Winds ( mph kmh ) Pressure ( in mb ) Visibility ( mi km ) Precip ( " mm )
12:53 am 00:53 Mostly Clear 70 21.1 67 19.4 90 90 ESE 3 6 29.92 1013 10 16 0.00 0.00
1:53 am 01:53 Mostly Cloudy 70 21.1 67 19.4 90 90 Calm 29.91 1013 10 16 0.00 0.00
2:53 am 02:53 Mostly Cloudy 71 21.7 67 19.4 87 87 Calm 29.91 1013 9 14 0.00 0.00
3:53 am 03:53 Cloudy with Light Rain 71 21.7 67 19.4 87 87 Calm 29.89 1012 9 14 0.00 0.00
4:13 am 04:13 Cloudy 71 21.7 68 20 90 90 Calm 29.91 1013 9 14 0.01 0.25
4:53 am 04:53 Cloudy 71 21.7 68 20 90 90 VRB 3 6 29.89 1012 10 16 0.01 0.25
5:22 am 05:22 Cloudy 71 21.7 68 20 90 90 Calm 29.91 1013 10 16 0.00 0.00
5:53 am 05:53 Cloudy 71 21.7 68 20 90 90 Calm 29.90 1012 9 14 0.00 0.00
6:17 am 06:17 Cloudy 71 21.7 68 20 90 90 Calm 29.92 1013 9 14 0.00 0.00
6:53 am 06:53 Cloudy 71 21.7 68 20 90 90 Calm 29.91 1013 9 14 0.00 0.00
7:53 am 07:53 Cloudy 71 21.7 68 20 90 90 Calm 29.92 1013 8 13 0.00 0.00
8:15 am 08:15 Cloudy 71 21.7 69 20.6 94 94 Calm 29.94 1014 7 11 0.00 0.00
8:53 am 08:53 Cloudy 72 22.2 68 20 87 87 NE 3 6 29.93 1013 9 14 0.00 0.00
9:53 am 09:53 Cloudy 73 22.8 69 20.6 87 87 Calm 29.94 1014 10 16 0.00 0.00
10:17 am 10:17 Cloudy 73 22.8 69 20.6 87 87 Calm 29.96 1014 10 16 0.00 0.00
10:27 am 10:27 Cloudy 73 22.8 69 20.6 87 87 E 3 6 29.96 1014 10 16 0.00 0.00
10:53 am 10:53 Cloudy 73 22.8 69 20.6 87 87 Calm 29.95 1014 10 16 0.00 0.00
11:12 am 11:12 Cloudy with Light Rain 73 22.8 69 20.6 87 87 VRB 3 6 29.96 1014 3 5 0.01 0.25
11:19 am 11:19 Cloudy with Light Rain 73 22.8 70 21.1 90 90 ENE 5 7 29.96 1014 6 10 0.01 0.25
11:40 am 11:40 Cloudy 75 23.9 71 21.7 88 88 NE 7 11 29.94 1014 9 14 0.01 0.25
11:53 am 11:53 Cloudy 77 25 70 21.1 79 79 VRB 5 7 29.93 1014 10 16 0.01 0.25
12:42 pm 12:42 Cloudy 77 25 70 21.1 79 79 SE 3 6 29.93 1014 10 16 0.00 0.00
12:53 pm 12:53 Cloudy 77 25 70 21.1 79 79 NE 5 7 29.92 1013 10 16 0.00 0.00
1:09 pm 13:09 Cloudy 78 25.6 70 21.1 76 76 E 5 7 29.93 1013 10 16 0.00 0.00
1:41 pm 13:41 Mostly Cloudy 78 25.6 69 20.6 74 74 E 7 11 29.92 1013 10 16 0.00 0.00
1:53 pm 13:53 Mostly Cloudy 79 26.1 69 20.6 72 72 NE 10 17 29.90 1013 10 16 0.00 0.00
2:53 pm 14:53 Partly Cloudy 82 27.8 71 21.7 69 69 NE 7 11 29.87 1011 10 16 0.00 0.00
3:01 pm 15:01 Mostly Cloudy 81 27.2 71 21.7 72 72 E 6 9 29.87 1012 10 16 0.00 0.00
3:14 pm 15:14 Mostly Cloudy 81 27.2 69 20.6 67 67 E 3 6 29.86 1011 10 16 0.00 0.00
3:53 pm 15:53 Partly Cloudy 81 27.2 70 21.1 69 69 ENE 6 9 29.85 1011 10 16 0.00 0.00
4:10 pm 16:10 Mostly Cloudy with Nearby Thunderstorms 77 25 70 21.1 79 79 ENE 3 6 29.86 1011 10 16 0.00 0.00
4:30 pm 16:30 Cloudy with Thunderstorms 73 22.8 67 19.4 81 81 VRB 6 9 29.89 1012 2 3 0.09 2.29
4:37 pm 16:37 Cloudy with Thunderstorms 70 21.1 67 19.4 90 90 VRB 6 9 29.90 1013 1 2 0.13 3.30
4:42 pm 16:42 Cloudy with Thunderstorms 70 21.1 67 19.4 90 90 S 7 11 29.91 1013 4 6 0.14 3.56
4:53 pm 16:53 Cloudy with Thunderstorms 71 21.7 68 20 90 90 Calm 29.88 1012 2 3 0.20 5.08
5:05 pm 17:05 Cloudy with Thunderstorms 73 22.8 69 20.6 87 87 VRB 3 6 29.89 1012 6 10 0.01 0.25
5:16 pm 17:16 Mostly Cloudy with Nearby Thunderstorms 75 23.9 69 20.6 82 82 Calm 29.87 1012 10 16 0.01 0.25
5:45 pm 17:45 Partly Cloudy with Light Rain 76 24.4 69 20.6 79 79 Calm 29.87 1012 10 16 0.01 0.25
5:53 pm 17:53 Mostly Sunny 77 25 69 20.6 77 77 Calm 29.86 1011 10 16 0.01 0.25
6:53 pm 18:53 Partly Cloudy 78 25.6 69 20.6 74 74 S 5 7 29.87 1011 10 16 0.00 0.00
7:53 pm 19:53 Sunny 75 23.9 70 21.1 84 84 Calm 29.87 1012 10 16 0.00 0.00
8:53 pm 20:53 Clear 73 22.8 69 20.6 87 87 Calm 29.87 1012 10 16 0.00 0.00
9:53 pm 21:53 Clear 71 21.7 68 20 90 90 ENE 3 6 29.91 1013 10 16 0.00 0.00
10:53 pm 22:53 Clear 71 21.7 68 20 90 90 Calm 29.92 1013 9 14 0.00 0.00
11:53 pm 23:53 Clear 70 21.1 68 20 93 93 E 3 6 29.90 1013 9 14 0.00 0.00

Powered by AerisWeather